Meteo orario Golden Glades

Oggi, 12 Aprile, Lunedi

Tempo Temperatura Precipitazioni Vento Pressione Umidità
00:00 +23°C° 0.1 mm 5 m/s 757 mm Hg 77%
01:00 +23°C° 0 mm 5 m/s 757 mm Hg 78%
02:00 +23°C° 0 mm 5 m/s 757 mm Hg 79%
03:00 +23°C° 0 mm 5 m/s 756 mm Hg 81%
04:00 +23°C° 0 mm 5 m/s 756 mm Hg 82%
05:00 +25°C° 0.6 mm 5 m/s 757 mm Hg 83%
06:00 +25°C° 0.6 mm 5 m/s 757 mm Hg 84%
07:00 +25°C° 0.6 mm 5 m/s 757 mm Hg 85%
08:00 +27°C° 0.8 mm 5 m/s 758 mm Hg 76%
09:00 +29°C° 0.8 mm 6 m/s 758 mm Hg 67%
10:00 +30°C° 0.8 mm 6 m/s 758 mm Hg 57%
11:00 +29°C° 0.6 mm 6 m/s 758 mm Hg 62%
12:00 +28°C° 0.6 mm 5 m/s 758 mm Hg 67%
13:00 +27°C° 0.6 mm 5 m/s 758 mm Hg 71%
14:00 +29°C° 0.2 mm 5 m/s 758 mm Hg 65%
15:00 +30°C° 0.2 mm 5 m/s 757 mm Hg 58%
16:00 +32°C° 0.2 mm 4 m/s 757 mm Hg 52%
17:00 +30°C° 0.1 mm 5 m/s 757 mm Hg 55%
18:00 +29°C° 0.1 mm 6 m/s 758 mm Hg 57%
19:00 +28°C° 0.1 mm 6 m/s 758 mm Hg 60%
20:00 +28°C° 0 mm 6 m/s 759 mm Hg 61%
21:00 +27°C° 0 mm 6 m/s 759 mm Hg 61%
22:00 +27°C° 0 mm 6 m/s 760 mm Hg 62%
23:00 +26°C° 0 mm 5 m/s 760 mm Hg 62%

Domani, 13 Aprile, Martedi

Tempo Temperatura Precipitazioni Vento Pressione Umidità
00:00 +26°C° 0 mm 5 m/s 760 mm Hg 62%
01:00 +26°C° 0 mm 4 m/s 760 mm Hg 62%
02:00 +26°C° 0 mm 4 m/s 760 mm Hg 59%
03:00 +25°C° 0 mm 3 m/s 760 mm Hg 57%
04:00 +25°C° 0 mm 3 m/s 760 mm Hg 54%
05:00 +25°C° 0 mm 3 m/s 760 mm Hg 52%
06:00 +25°C° 0 mm 3 m/s 761 mm Hg 50%
07:00 +26°C° 0 mm 3 m/s 762 mm Hg 49%
08:00 +27°C° 0 mm 3 m/s 762 mm Hg 44%
09:00 +28°C° 0 mm 4 m/s 762 mm Hg 38%
10:00 +30°C° 0 mm 5 m/s 763 mm Hg 33%
11:00 +30°C° 0 mm 5 m/s 762 mm Hg 32%
12:00 +32°C° 0 mm 5 m/s 762 mm Hg 30%
13:00 +32°C° 0 mm 5 m/s 762 mm Hg 29%
14:00 +32°C° 0 mm 5 m/s 761 mm Hg 29%
15:00 +32°C° 0 mm 5 m/s 761 mm Hg 30%
16:00 +32°C° 0 mm 4 m/s 761 mm Hg 31%
17:00 +30°C° 0 mm 4 m/s 761 mm Hg 34%
18:00 +29°C° 0 mm 4 m/s 762 mm Hg 37%
19:00 +28°C° 0 mm 4 m/s 762 mm Hg 41%
20:00 +28°C° 0 mm 4 m/s 762 mm Hg 43%
21:00 +27°C° 0 mm 4 m/s 763 mm Hg 45%
22:00 +27°C° 0 mm 4 m/s 763 mm Hg 47%
23:00 +27°C° 0 mm 3 m/s 763 mm Hg 48%

Dopodomani, 14 Aprile, Mercoledi

Tempo Temperatura Precipitazioni Vento Pressione Umidità
00:00 +26°C° 0 mm 3 m/s 763 mm Hg 50%
01:00 +26°C° 0 mm 3 m/s 763 mm Hg 52%
02:00 +26°C° 0 mm 3 m/s 763 mm Hg 54%
03:00 +26°C° 0 mm 3 m/s 762 mm Hg 56%
04:00 +25°C° 0 mm 3 m/s 762 mm Hg 58%
05:00 +26°C° 0 mm 3 m/s 763 mm Hg 59%
06:00 +26°C° 0 mm 3 m/s 763 mm Hg 60%
07:00 +26°C° 0 mm 3 m/s 763 mm Hg 61%
08:00 +27°C° 0 mm 4 m/s 764 mm Hg 58%
09:00 +28°C° 0 mm 5 m/s 764 mm Hg 55%
10:00 +29°C° 0 mm 6 m/s 764 mm Hg 52%
11:00 +29°C° 0 mm 6 m/s 763 mm Hg 50%
12:00 +29°C° 0 mm 6 m/s 763 mm Hg 49%
13:00 +30°C° 0 mm 6 m/s 762 mm Hg 47%
14:00 +30°C° 0 mm 6 m/s 762 mm Hg 47%
15:00 +29°C° 0 mm 5 m/s 762 mm Hg 47%
16:00 +29°C° 0 mm 5 m/s 761 mm Hg 47%
17:00 +28°C° 0 mm 5 m/s 761 mm Hg 49%
18:00 +28°C° 0 mm 5 m/s 762 mm Hg 51%
19:00 +27°C° 0 mm 5 m/s 762 mm Hg 54%
20:00 +27°C° 0 mm 5 m/s 762 mm Hg 55%
21:00 +26°C° 0 mm 5 m/s 762 mm Hg 57%
22:00 +26°C° 0 mm 5 m/s 762 mm Hg 58%
23:00 +26°C° 0 mm 5 m/s 762 mm Hg 61%

15 Aprile, Giovedi

Tempo Temperatura Precipitazioni Vento Pressione Umidità
00:00 +26°C° 0 mm 4 m/s 761 mm Hg 63%
01:00 +26°C° 0 mm 4 m/s 761 mm Hg 65%
02:00 +26°C° 0 mm 3 m/s 761 mm Hg 66%
03:00 +25°C° 0 mm 3 m/s 760 mm Hg 66%
04:00 +25°C° 0 mm 2 m/s 760 mm Hg 67%
05:00 +25°C° 0 mm 2 m/s 760 mm Hg 66%
06:00 +25°C° 0 mm 2 m/s 761 mm Hg 66%
07:00 +26°C° 0 mm 2 m/s 761 mm Hg 66%
08:00 +27°C° 0 mm 3 m/s 761 mm Hg 62%
09:00 +28°C° 0 mm 4 m/s 761 mm Hg 57%
10:00 +29°C° 0 mm 5 m/s 760 mm Hg 52%
11:00 +30°C° 0 mm 5 m/s 760 mm Hg 48%
12:00 +32°C° 0 mm 5 m/s 760 mm Hg 44%
13:00 +33°C° 0 mm 5 m/s 759 mm Hg 39%
14:00 +33°C° 0 mm 6 m/s 759 mm Hg 40%
15:00 +33°C° 0 mm 7 m/s 758 mm Hg 41%
16:00 +33°C° 0 mm 8 m/s 758 mm Hg 41%
17:00 +32°C° 0 mm 7 m/s 758 mm Hg 42%
18:00 +32°C° 0 mm 7 m/s 758 mm Hg 43%
19:00 +30°C° 0 mm 7 m/s 758 mm Hg 45%
20:00 +29°C° 0 mm 6 m/s 759 mm Hg 50%
21:00 +28°C° 0 mm 5 m/s 759 mm Hg 55%
22:00 +27°C° 0 mm 4 m/s 760 mm Hg 60%
23:00 +27°C° 0 mm 3 m/s 759 mm Hg 63%

16 Aprile, Venerdi

Tempo Temperatura Precipitazioni Vento Pressione Umidità
00:00 +26°C° 0 mm 3 m/s 759 mm Hg 66%
01:00 +26°C° 0 mm 2 m/s 759 mm Hg 69%
02:00 +26°C° 0 mm 3 m/s 759 mm Hg 70%
03:00 +25°C° 0 mm 3 m/s 758 mm Hg 72%
04:00 +25°C° 0 mm 3 m/s 758 mm Hg 74%
05:00 +25°C° 0 mm 3 m/s 758 mm Hg 73%
06:00 +25°C° 0 mm 3 m/s 759 mm Hg 73%
07:00 +25°C° 0 mm 3 m/s 759 mm Hg 73%
08:00 +27°C° 0 mm 3 m/s 759 mm Hg 64%
09:00 +29°C° 0 mm 3 m/s 759 mm Hg 55%
10:00 +30°C° 0 mm 4 m/s 759 mm Hg 45%
11:00 +33°C° 0 mm 4 m/s 759 mm Hg 41%
12:00 +34°C° 0 mm 5 m/s 758 mm Hg 37%
13:00 +36°C° 0 mm 5 m/s 757 mm Hg 32%
14:00 +36°C° 0 mm 5 m/s 757 mm Hg 32%
15:00 +36°C° 0 mm 6 m/s 757 mm Hg 31%
16:00 +36°C° 0 mm 6 m/s 756 mm Hg 30%
17:00 +35°C° 0 mm 6 m/s 756 mm Hg 34%
18:00 +34°C° 0 mm 6 m/s 757 mm Hg 37%
19:00 +33°C° 0 mm 6 m/s 757 mm Hg 41%
20:00 +32°C° 0 mm 6 m/s 758 mm Hg 46%
21:00 +30°C° 0 mm 5 m/s 758 mm Hg 50%
22:00 +29°C° 0 mm 4 m/s 758 mm Hg 55%
23:00 +28°C° 0 mm 3 m/s 758 mm Hg 57%

17 Aprile, Sabato

Tempo Temperatura Precipitazioni Vento Pressione Umidità
00:00 +28°C° 0 mm 3 m/s 758 mm Hg 60%
01:00 +27°C° 0 mm 2 m/s 758 mm Hg 62%
02:00 +27°C° 0 mm 2 m/s 758 mm Hg 64%
03:00 +26°C° 0 mm 2 m/s 758 mm Hg 65%
04:00 +26°C° 0 mm 2 m/s 758 mm Hg 67%
05:00 +26°C° 0 mm 2 m/s 758 mm Hg 67%
06:00 +26°C° 0 mm 2 m/s 759 mm Hg 67%
07:00 +27°C° 0 mm 2 m/s 759 mm Hg 67%
08:00 +28°C° 0 mm 3 m/s 759 mm Hg 62%
09:00 +30°C° 0 mm 4 m/s 759 mm Hg 56%
10:00 +33°C° 0 mm 5 m/s 759 mm Hg 51%
11:00 +34°C° 0 mm 5 m/s 759 mm Hg 44%
12:00 +36°C° 0 mm 6 m/s 758 mm Hg 37%
13:00 +38°C° 0 mm 7 m/s 758 mm Hg 30%
14:00 +38°C° 0 mm 7 m/s 758 mm Hg 30%
15:00 +38°C° 0 mm 8 m/s 757 mm Hg 29%
16:00 +38°C° 0 mm 8 m/s 757 mm Hg 29%
17:00 +35°C° 0 mm 7 m/s 758 mm Hg 34%
18:00 +34°C° 0 mm 7 m/s 758 mm Hg 39%
19:00 +33°C° 0 mm 6 m/s 758 mm Hg 44%
20:00 +32°C° 0 mm 6 m/s 759 mm Hg 49%
21:00 +30°C° 0 mm 6 m/s 759 mm Hg 55%
22:00 +29°C° 0 mm 5 m/s 760 mm Hg 60%
23:00 +28°C° 0 mm 5 m/s 760 mm Hg 63%
Mostrare altro

Abbiamo bisogno del tuo consenso

Meteoprog e i nostri fornitori di servizi possono memorizzare e accedere a dati personali come cookie, identificatori di dispositivi o altre tecnologie simili sul tuo dispositivo e possono elaborare tali dati per personalizzare i contenuti e gli annunci, nonché fornire funzionalità dei social media e analizzarne il traffico.

  • Archiviare e/o accedere alle informazioni sul tuo dispositivo

    Cookie, identificatori di dispositivi o altre informazioni possono essere memorizzati o resi accessibili sul tuo dispositivo per le finalità sopra indicate.

  • Annunci e contenuti personalizzati, misurazione di annunci e contenuti, approfondimenti sul pubblico e sviluppo di prodotti

    Gli annunci e i contenuti possono essere personalizzati in base a un profilo. È possibile aggiungere più dati per personalizzare meglio annunci e contenuti. È possibile misurare il rendimento degli annunci e dei contenuti. È possibile ricavare informazioni sul pubblico che ha visto gli annunci e i contenuti. Tali dati possono essere utilizzati per sviluppare o migliorare l'esperienza, i sistemi e il software dell'utente.

Cliccando su “Accetto”, acconsenti all'uso di cookie, identificatori di dispositivo, web beacon o altre tecnologie simili. Puoi modificare le impostazioni nel browser del tuo dispositivo.

Per determinati scopi, è possibile fare affidamento su interessi legali, piuttosto che sul consenso. Puoi approfondire questo argomento consultando la nostra Informativa sulla privacy e sui cookie.